Tracking 21082 objects as of 5-Aug-2020
HD Live streaming from Space Station
objects crossing your sky now

BEIDOU 3M5

Track BEIDOU 3M5 now!
BEIDOU 3M5 is classified as:


NORAD ID: 43207
Int'l Code: 2018-018A
Perigee: 21,514.8 km
Apogee: 21,555.4 km
Inclination: 55.2 °
Period: 773.2 minutes
Semi major axis: 27906 km
RCS: Unknown
Launch date: February 12, 2018
Source: People's Republic of China (PRC)
Launch site: Xichang Space Center, China (XSC)
aabbcc
Your satellite tracking list
Your tracking list is empty




NASA's NSSDC Master Catalog

Two Line Element Set (TLE):
1 43207U 18018A   20217.22552868 -.00000033  00000-0  00000+0 0  9990
2 43207  55.1901 134.7305 0007261 334.5560  25.4131  1.86231874 16838
Source of the keplerian elements: AFSPC